Time,TemperatureF,DewpointF,PressureIn,WindDirection,WindDirectionDegrees,WindSpeedMPH,WindSpeedGustMPH,Humidity,HourlyPrecipIn,Conditions,Clouds,dailyrainin,SoftwareType,DateUTC
2015-05-24 00:05:00,53.4,30.9,30.45,West,264,0.0,0.0,42,0.00,,,0.00,VWS V12.08,2015-05-24 04:05:00,
2015-05-24 00:13:00,53.2,30.8,30.45,WSW,245,0.0,2.7,42,0.00,,,0.00,VWS V12.08,2015-05-24 04:13:00,
2015-05-24 00:19:00,53.2,30.8,30.45,WNW,287,0.0,2.7,42,0.00,,,0.00,VWS V12.08,2015-05-24 04:19:00,
2015-05-24 00:28:00,53.4,30.3,30.45,WSW,254,0.0,2.2,41,0.00,,,0.00,VWS V12.08,2015-05-24 04:28:00,
2015-05-24 00:34:00,53.6,30.5,30.45,SW,223,0.0,2.2,41,0.00,,,0.00,VWS V12.08,2015-05-24 04:34:00,
2015-05-24 00:43:00,53.6,30.5,30.45,ENE,61,0.0,2.7,41,0.00,,,0.00,VWS V12.08,2015-05-24 04:43:00,
2015-05-24 00:49:00,53.4,30.3,30.45,SW,235,0.0,4.9,41,0.00,,,0.00,VWS V12.08,2015-05-24 04:49:00,
2015-05-24 00:58:00,53.4,30.9,30.45,West,270,0.0,4.9,42,0.00,,,0.00,VWS V12.08,2015-05-24 04:58:00,
2015-05-24 01:03:00,53.4,30.9,30.45,SW,225,0.0,4.9,42,0.00,,,0.00,VWS V12.08,2015-05-24 05:03:00,
2015-05-24 01:12:00,53.6,30.5,30.45,WSW,238,0.0,3.6,42,0.00,,,0.00,VWS V12.08,2015-05-24 05:12:00,
2015-05-24 01:18:00,53.6,31.1,30.45,WSW,254,3.1,4.0,42,0.00,,,0.00,VWS V12.08,2015-05-24 05:18:00,
2015-05-24 01:27:00,53.6,31.7,30.45,SSE,168,0.0,3.6,43,0.00,,,0.00,VWS V12.08,2015-05-24 05:27:00,
2015-05-24 01:33:00,53.6,31.7,30.45,West,260,0.0,3.6,43,0.00,,,0.00,VWS V12.08,2015-05-24 05:33:00,
2015-05-24 01:42:00,53.6,32.2,30.45,NW,324,0.0,3.6,44,0.00,,,0.00,VWS V12.08,2015-05-24 05:42:00,
2015-05-24 01:48:00,53.6,31.7,30.45,WNW,293,0.0,2.7,43,0.00,,,0.00,VWS V12.08,2015-05-24 05:48:00,
2015-05-24 01:57:00,53.4,32.1,30.45,SSE,165,3.1,4.0,44,0.00,,,0.00,VWS V12.08,2015-05-24 05:57:00,
2015-05-24 02:06:00,53.4,32.1,30.45,NNW,339,3.1,4.0,44,0.00,,,0.00,VWS V12.08,2015-05-24 06:06:00,
2015-05-24 02:12:00,53.4,32.1,30.42,SSE,151,0.0,3.1,45,0.00,,,0.00,VWS V12.08,2015-05-24 06:12:00,
2015-05-24 02:18:00,53.2,32.5,30.42,NE,46,0.0,3.1,45,0.00,,,0.00,VWS V12.08,2015-05-24 06:18:00,
2015-05-24 02:27:00,53.2,32.5,30.42,SW,217,0.0,2.7,45,0.00,,,0.00,VWS V12.08,2015-05-24 06:27:00,
2015-05-24 02:33:00,53.2,32.5,30.42,SSW,195,0.0,2.7,44,0.00,,,0.00,VWS V12.08,2015-05-24 06:33:00,
2015-05-24 02:42:00,53.2,31.9,30.45,WNW,287,0.0,5.4,44,0.00,,,0.00,VWS V12.08,2015-05-24 06:42:00,
2015-05-24 02:48:00,53.4,30.8,30.45,WSW,245,0.0,5.4,42,0.00,,,0.00,VWS V12.08,2015-05-24 06:48:00,
2015-05-24 02:57:00,53.6,31.5,30.45,WSW,241,2.2,5.4,42,0.00,,,0.00,VWS V12.08,2015-05-24 06:57:00,
2015-05-24 03:04:00,53.6,31.1,30.45,WSW,246,3.1,5.4,42,0.00,,,0.00,VWS V12.08,2015-05-24 07:04:00,
2015-05-24 03:12:00,53.8,30.6,30.42,NNW,338,3.1,4.5,41,0.00,,,0.00,VWS V12.08,2015-05-24 07:12:00,
2015-05-24 03:27:00,53.8,31.8,30.42,East,79,2.2,4.0,43,0.00,,,0.00,VWS V12.08,2015-05-24 07:27:00,
2015-05-24 03:33:00,53.8,31.2,30.42,NNW,337,0.0,4.0,42,0.00,,,0.00,VWS V12.08,2015-05-24 07:33:00,
2015-05-24 03:42:00,53.8,31.2,30.42,SSW,207,3.1,6.7,43,0.00,,,0.00,VWS V12.08,2015-05-24 07:42:00,
2015-05-24 03:48:00,53.8,32.4,30.42,SW,214,0.0,3.6,43,0.00,,,0.00,VWS V12.08,2015-05-24 07:48:00,
2015-05-24 03:57:00,53.8,32.4,30.42,West,259,2.7,5.4,44,0.00,,,0.00,VWS V12.08,2015-05-24 07:57:00,
2015-05-24 04:04:00,53.8,33.0,30.42,SSW,197,2.7,5.4,44,0.00,,,0.00,VWS V12.08,2015-05-24 08:04:00,
2015-05-24 04:12:00,53.8,33.3,30.42,North,353,0.0,4.9,45,0.00,,,0.00,VWS V12.08,2015-05-24 08:12:00,
2015-05-24 04:18:00,53.6,33.3,30.42,SW,216,2.7,4.9,46,0.00,,,0.00,VWS V12.08,2015-05-24 08:18:00,
2015-05-24 04:27:00,53.6,33.3,30.42,West,266,0.0,4.0,46,0.00,,,0.00,VWS V12.08,2015-05-24 08:27:00,
2015-05-24 04:33:00,53.6,33.3,30.42,ENE,76,0.0,4.0,46,0.00,,,0.00,VWS V12.08,2015-05-24 08:33:00,
2015-05-24 04:42:00,53.6,33.3,30.42,NNW,329,2.7,4.0,46,0.00,,,0.00,VWS V12.08,2015-05-24 08:42:00,
2015-05-24 04:48:00,53.6,33.9,30.42,North,353,3.6,4.9,47,0.00,,,0.00,VWS V12.08,2015-05-24 08:48:00,
2015-05-24 04:57:00,53.6,33.9,30.42,NNE,17,5.4,5.4,47,0.00,,,0.00,VWS V12.08,2015-05-24 08:57:00,
2015-05-24 05:03:00,53.6,33.9,30.42,WSW,242,0.0,7.6,47,0.00,,,0.00,VWS V12.08,2015-05-24 09:03:00,
2015-05-24 05:12:00,53.8,34.6,30.42,WSW,240,0.0,4.0,48,0.00,,,0.00,VWS V12.08,2015-05-24 09:12:00,
2015-05-24 05:18:00,53.8,34.6,30.42,WSW,241,0.0,4.0,48,0.00,,,0.00,VWS V12.08,2015-05-24 09:18:00,
2015-05-24 05:27:00,53.8,34.6,30.42,NNW,328,2.7,4.0,48,0.00,,,0.00,VWS V12.08,2015-05-24 09:27:00,
2015-05-24 05:33:00,53.8,35.1,30.42,NW,322,0.0,5.8,49,0.00,,,0.00,VWS V12.08,2015-05-24 09:33:00,
2015-05-24 05:42:00,53.8,35.2,30.42,SW,228,0.0,5.8,49,0.00,,,0.00,VWS V12.08,2015-05-24 09:42:00,
2015-05-24 05:48:00,54.0,35.2,30.42,WSW,240,0.0,4.0,49,0.00,,,0.00,VWS V12.08,2015-05-24 09:48:00,
2015-05-24 05:57:00,54.1,35.9,30.42,SW,214,3.1,4.0,50,0.00,,,0.00,VWS V12.08,2015-05-24 09:57:00,
2015-05-24 06:03:00,54.1,35.9,30.42,South,170,0.0,4.0,50,0.00,,,0.00,VWS V12.08,2015-05-24 10:03:00,
2015-05-24 06:13:00,54.5,36.3,30.42,SW,225,3.6,4.9,50,0.00,,,0.00,VWS V12.08,2015-05-24 10:13:00,
2015-05-24 06:18:00,54.7,36.4,30.42,SW,218,3.6,4.9,50,0.00,,,0.00,VWS V12.08,2015-05-24 10:18:00,
2015-05-24 06:28:00,54.9,36.6,30.42,WSW,250,4.0,4.0,50,0.00,,,0.00,VWS V12.08,2015-05-24 10:28:00,
2015-05-24 06:33:00,55.0,36.8,30.42,ENE,77,0.0,4.0,50,0.00,,,0.00,VWS V12.08,2015-05-24 10:33:00,
2015-05-24 06:43:00,55.4,37.1,30.42,WSW,237,2.7,4.0,50,0.00,,,0.00,VWS V12.08,2015-05-24 10:43:00,
2015-05-24 06:48:00,55.8,37.2,30.42,WSW,251,3.6,4.0,50,0.00,,,0.00,VWS V12.08,2015-05-24 10:48:00,
2015-05-24 06:58:00,55.9,37.6,30.42,SW,235,0.0,7.6,50,0.00,,,0.00,VWS V12.08,2015-05-24 10:58:00,
2015-05-24 07:03:00,56.3,37.9,30.42,SW,231,0.0,7.6,50,0.00,,,0.00,VWS V12.08,2015-05-24 11:03:00,
2015-05-24 07:13:00,56.7,37.7,30.42,NNW,329,3.6,3.6,49,0.00,,,0.00,VWS V12.08,2015-05-24 11:13:00,
2015-05-24 07:18:00,56.8,38.4,30.42,West,263,0.0,4.0,50,0.00,,,0.00,VWS V12.08,2015-05-24 11:18:00,
2015-05-24 07:23:00,57.2,38.2,30.42,West,261,0.0,4.0,49,0.00,,,0.00,VWS V12.08,2015-05-24 11:23:00,
2015-05-24 07:28:00,57.2,38.4,30.42,SW,221,3.1,3.1,49,0.00,,,0.00,VWS V12.08,2015-05-24 11:28:00,
2015-05-24 07:33:00,57.6,38.6,30.42,West,274,0.0,3.1,49,0.00,,,0.00,VWS V12.08,2015-05-24 11:33:00,
2015-05-24 07:43:00,57.9,38.0,30.42,NW,308,2.7,5.8,47,0.00,,,0.00,VWS V12.08,2015-05-24 11:43:00,
2015-05-24 07:48:00,58.3,38.0,30.42,SSE,152,0.0,4.0,48,0.00,,,0.00,VWS V12.08,2015-05-24 11:48:00,
2015-05-24 07:58:00,58.8,38.7,30.42,West,259,0.0,4.9,47,0.00,,,0.00,VWS V12.08,2015-05-24 11:58:00,
2015-05-24 08:07:00,59.2,38.4,30.42,West,277,2.7,3.1,46,0.00,,,0.00,VWS V12.08,2015-05-24 12:07:00,
2015-05-24 08:12:00,59.4,38.0,30.42,NNW,331,2.7,5.4,45,0.00,,,0.00,VWS V12.08,2015-05-24 12:12:00,
2015-05-24 08:17:00,59.5,38.2,30.42,West,259,0.0,5.4,45,0.00,,,0.00,VWS V12.08,2015-05-24 12:17:00,
2015-05-24 08:27:00,60.1,38.1,30.42,NNW,333,2.7,4.5,44,0.00,,,0.00,VWS V12.08,2015-05-24 12:27:00,
2015-05-24 08:32:00,60.4,38.4,30.42,SW,215,3.1,4.9,44,0.00,,,0.00,VWS V12.08,2015-05-24 12:32:00,
2015-05-24 08:42:00,61.0,37.8,30.42,NW,321,3.6,5.4,42,0.00,,,0.00,VWS V12.08,2015-05-24 12:42:00,
2015-05-24 08:47:00,61.5,39.0,30.42,NW,322,5.4,5.4,43,0.00,,,0.00,VWS V12.08,2015-05-24 12:47:00,
2015-05-24 08:57:00,61.5,37.0,30.42,SW,221,0.0,5.4,41,0.00,,,0.00,VWS V12.08,2015-05-24 12:57:00,
2015-05-24 09:02:00,61.7,38.0,30.42,West,281,2.2,5.4,40,0.00,,,0.00,VWS V12.08,2015-05-24 13:02:00,
2015-05-24 09:12:00,63.0,38.5,30.42,WNW,303,3.1,4.0,40,0.00,,,0.00,VWS V12.08,2015-05-24 13:12:00,
2015-05-24 09:17:00,63.5,36.8,30.42,SSW,212,3.1,4.0,37,0.00,,,0.00,VWS V12.08,2015-05-24 13:17:00,
2015-05-24 09:27:00,64.4,37.6,30.42,West,266,2.7,4.0,37,0.00,,,0.00,VWS V12.08,2015-05-24 13:27:00,
2015-05-24 09:32:00,64.9,37.4,30.42,NW,322,2.7,5.8,35,0.00,,,0.00,VWS V12.08,2015-05-24 13:32:00,
2015-05-24 09:42:00,65.5,36.4,30.39,SSE,150,3.1,5.8,34,0.00,,,0.00,VWS V12.08,2015-05-24 13:42:00,
2015-05-24 09:47:00,65.7,36.0,30.39,NNW,329,0.0,4.0,31,0.00,,,0.00,VWS V12.08,2015-05-24 13:47:00,
2015-05-24 09:57:00,66.7,38.1,30.42,NNW,330,2.2,5.8,35,0.00,,,0.00,VWS V12.08,2015-05-24 13:57:00,
2015-05-24 10:02:00,66.9,37.7,30.42,SW,222,0.0,5.8,34,0.00,,,0.00,VWS V12.08,2015-05-24 14:02:00,
2015-05-24 10:12:00,67.3,37.2,30.42,SW,232,2.2,5.8,33,0.00,,,0.00,VWS V12.08,2015-05-24 14:12:00,
2015-05-24 10:17:00,67.6,37.5,30.42,NW,318,2.7,5.8,33,0.00,,,0.00,VWS V12.08,2015-05-24 14:17:00,
2015-05-24 10:22:00,68.0,37.1,30.42,SSW,207,0.0,5.8,33,0.00,,,0.00,VWS V12.08,2015-05-24 14:22:00,
2015-05-24 10:27:00,68.0,36.3,30.42,West,275,2.2,4.0,32,0.00,,,0.00,VWS V12.08,2015-05-24 14:27:00,
2015-05-24 10:32:00,68.4,34.0,30.42,WNW,282,4.0,6.3,29,0.00,,,0.00,VWS V12.08,2015-05-24 14:32:00,
2015-05-24 10:37:00,68.7,35.9,30.42,SW,223,2.7,6.3,32,0.00,,,0.00,VWS V12.08,2015-05-24 14:37:00,
2015-05-24 10:42:00,68.9,32.5,30.39,South,171,5.4,6.3,28,0.00,,,0.00,VWS V12.08,2015-05-24 14:42:00,
2015-05-24 10:47:00,68.5,33.3,30.39,South,172,3.1,5.4,30,0.00,,,0.00,VWS V12.08,2015-05-24 14:47:00,
2015-05-24 10:52:00,68.5,32.3,30.39,WSW,245,0.0,5.4,27,0.00,,,0.00,VWS V12.08,2015-05-24 14:52:00,
2015-05-24 11:02:00,69.3,34.8,30.39,SE,144,0.0,5.4,28,0.00,,,0.00,VWS V12.08,2015-05-24 15:02:00,
2015-05-24 11:12:00,69.4,32.1,30.39,SSW,196,0.0,5.4,26,0.00,,,0.00,VWS V12.08,2015-05-24 15:12:00,
2015-05-24 11:17:00,69.8,33.2,30.39,WSW,248,3.6,6.3,26,0.00,,,0.00,VWS V12.08,2015-05-24 15:17:00,
2015-05-24 11:27:00,69.8,30.2,30.39,NNW,335,3.1,5.4,23,0.00,,,0.00,VWS V12.08,2015-05-24 15:27:00,
2015-05-24 11:32:00,70.0,29.3,30.39,SSE,154,3.1,5.4,23,0.00,,,0.00,VWS V12.08,2015-05-24 15:32:00,
2015-05-24 11:37:00,70.2,32.9,30.39,WSW,244,2.7,5.4,24,0.00,,,0.00,VWS V12.08,2015-05-24 15:37:00,
2015-05-24 11:42:00,70.7,32.2,30.39,SW,229,0.0,5.8,24,0.00,,,0.00,VWS V12.08,2015-05-24 15:42:00,
2015-05-24 11:47:00,70.7,32.3,30.39,WSW,247,3.1,6.3,23,0.00,,,0.00,VWS V12.08,2015-05-24 15:47:00,
2015-05-24 11:57:00,70.2,29.6,30.39,South,175,4.9,6.3,22,0.00,,,0.00,VWS V12.08,2015-05-24 15:57:00,
2015-05-24 12:02:00,70.5,31.3,30.39,SW,233,3.6,6.3,22,0.00,,,0.00,VWS V12.08,2015-05-24 16:02:00,
2015-05-24 12:12:00,71.8,32.0,30.39,SSW,209,3.6,4.9,22,0.00,,,0.00,VWS V12.08,2015-05-24 16:12:00,
2015-05-24 12:17:00,72.3,27.6,30.39,ENE,64,2.7,5.4,16,0.00,,,0.00,VWS V12.08,2015-05-24 16:17:00,
2015-05-24 12:22:00,73.8,27.6,30.39,South,171,0.0,5.4,16,0.00,,,0.00,VWS V12.08,2015-05-24 16:22:00,